Flag for U.S.A. Weather past 2 weeks in Irving, Texas, U.S.A.

Now
95 °F

Partly sunny.


Feels Like: 101 °F
Forecast: 78 / 96 °F
Wind: 8 mph from Southeast

Location: Dallas / Fort Worth International Airport

Current Time: Sep 2, 2014 at 3:17:32 PM

Latest Report: Sep 2, 2014 at 2:53 PM


Visibility: 10 mi

Pressure: 29.90 "Hg

Humidity: 44%

Dew point: 70 °F

Location of IrvingLocation

Historic Weather in Irving — Graph

°F

Irving temperature yesterday

Maximum temperature yesterday: 96 °F (at 3:53 PM)
Minimum temperature yesterday: 78 °F (at 4:53 AM)
Average temperature yesterday: 87 °F

Past Weeks' High & Low Weather Summary

 TemperatureHumidityPressure
High100 °F (Aug 22, 4:53 PM)91% (Aug 29, 7:53 AM)30.04 "Hg (Aug 29, 7:53 AM)
Low71 °F (Aug 29, 5:53 AM)27% (Aug 22, 6:53 PM)29.79 "Hg (Sep 1, 5:53 PM)
Average87 °F56%29.90 "Hg
* Reported Aug 18 1:53 PM — Sep 2 1:53 PM, Irving, Weather by CustomWeather, © 2014

Note: Actual official high and low records may vary slightly from our data, if they occured in-between our weather recording intervals... More about our weather records

Advertising

Irving weather history for previous 24 hours

 ConditionsComfort  
Time TempWeatherWind HumidityBarometerVisibility
1:53 PM
Sep 2
93 °FScattered clouds.13 mph47%29.93 "Hg10 mi
12:53 PM91 °FScattered clouds.12 mph52%29.97 "Hg10 mi
11:53 AM90 °FScattered clouds.14 mph54%29.96 "Hg10 mi
10:53 AM87 °FScattered clouds.8 mph61%29.95 "Hg10 mi
9:53 AM83 °FScattered clouds.21 mph70%29.93 "Hg10 mi
8:53 AM82 °FPartly sunny.15 mph74%29.93 "Hg10 mi
7:53 AM79 °FPassing clouds.10 mph79%29.91 "Hg10 mi
6:53 AM79 °FPassing clouds.12 mph77%29.88 "Hg10 mi
5:53 AM80 °FClear.16 mph71%29.84 "Hg10 mi
4:53 AM81 °FClear.17 mph69%29.84 "Hg10 mi
3:53 AM83 °FClear.16 mph65%29.83 "Hg10 mi
2:53 AM83 °FClear.15 mph65%29.83 "Hg10 mi
1:53 AM85 °FClear.17 mph61%29.85 "Hg10 mi
12:53 AM86 °FClear.16 mph57%29.85 "Hg10 mi
11:53 PM
Sep 1
87 °FClear.15 mph55%29.84 "Hg10 mi
10:53 PM88 °FClear.15 mph48%29.83 "Hg10 mi
9:53 PM89 °FClear.14 mph46%29.83 "Hg10 mi
8:53 PM90 °FClear.16 mph47%29.83 "Hg10 mi
7:53 PM92 °FPassing clouds.15 mph44%29.81 "Hg10 mi
6:53 PM93 °FPassing clouds.17 mph46%29.80 "Hg10 mi
5:53 PM95 °FPassing clouds.17 mph43%29.79 "Hg10 mi
4:53 PM94 °FScattered clouds.17 mph43%29.80 "Hg10 mi
3:53 PM96 °FPartly sunny.18 mph43%29.82 "Hg10 mi
Weather by CustomWeather, © 2014

See weather overviewHow to use our weather pages